QPF
0.00 0.00 0.00 0.00 0.00 0.00 0.00 0.00 0.00 0.01 0.01 0.01 0.02 0.02 0.03 0.03 0.03 0.03 0.02 0.02 0.01 0.01 0.01 0.01 0.00 0.00 0.00 0.00 0.01 0.02 0.04 0.07 0.06 0.04 0.04 0.06 0.09 0.09 0.08 0.08 0.07 0.07 0.06
0.00 0.00 0.00 0.00 0.00 0.00 0.00 0.00 0.00 0.00 0.00 0.00 0.00 0.01 0.01 0.02 0.03 0.03 0.03 0.02 0.02 0.01 0.02 0.02 0.01 0.00 0.00 0.00 0.00 0.02 0.03 0.06 0.06 0.05 0.05 0.07 0.07 0.05 0.06 0.05 0.05 0.04 0.05
0.00 0.00 0.00 0.00 0.00 0.00 0.00 0.00 0.00 0.00 0.00 0.00 0.00 0.00 0.00 0.01 0.02 0.03 0.03 0.04 0.04 0.03 0.02 0.01 0.01 0.00 0.00 0.00 0.00 0.01 0.01 0.04 0.05 0.05 0.06 0.08 0.08 0.06 0.05 0.04 0.04 0.03 0.03
0.00 0.00 0.00 0.00 0.00 0.00 0.00 0.00 0.00 0.00 0.00 0.00 0.00 0.00 0.00 0.01 0.02 0.03 0.03 0.04 0.04 0.03 0.02 0.01 0.01 0.00 0.00 0.00 0.00 0.00 0.01 0.02 0.03 0.04 0.07 0.11 0.11 0.09 0.06 0.05 0.06 0.05 0.04
0.00 0.00 0.00 0.00 0.00 0.00 0.00 0.00 0.00 0.00 0.00 0.00 0.00 0.00 0.00 0.01 0.01 0.02 0.03 0.04 0.04 0.04 0.02 0.02 0.01 0.00 0.00 0.00 0.00 0.00 0.01 0.01 0.03 0.04 0.06 0.10 0.12 0.11 0.08 0.06 0.06 0.06 0.05
0.00 0.00 0.00 0.00 0.00 0.00 0.00 0.00 0.01 0.01 0.01 0.01 0.01 0.01 0.01 0.00 0.01 0.01 0.02 0.04 0.05 0.05 0.04 0.03 0.01 0.01 0.00 0.00 0.00 0.01 0.01 0.02 0.03 0.05 0.06 0.07 0.10 0.09 0.07 0.05 0.04 0.05 0.07
0.00 0.00 0.00 0.00 0.00 0.00 0.00 0.01 0.01 0.01 0.01 0.01 0.01 0.01 0.01 0.00 0.01 0.01 0.02 0.04 0.06 0.07 0.06 0.05 0.03 0.01 0.00 0.00 0.00 0.01 0.01 0.02 0.04 0.05 0.06 0.07 0.10 0.11 0.09 0.07 0.06 0.05 0.05
0.00 0.00 0.00 0.00 0.00 0.00 0.01 0.01 0.01 0.01 0.01 0.01 0.01 0.01 0.00 0.00 0.01 0.02 0.03 0.04 0.07 0.09 0.08 0.07 0.04 0.02 0.01 0.00 0.00 0.01 0.00 0.01 0.03 0.03 0.05 0.07 0.10 0.11 0.10 0.08 0.07 0.07 0.07
0.00 0.00 0.01 0.01 0.01 0.01 0.01 0.01 0.01 0.01 0.01 0.01 0.01 0.01 0.01 0.00 0.01 0.02 0.04 0.06 0.10 0.14 0.13 0.11 0.07 0.04 0.02 0.01 0.01 0.01 0.01 0.02 0.03 0.06 0.08 0.10 0.12 0.12 0.10 0.07 0.07 0.08 0.08
0.01 0.02 0.02 0.02 0.02 0.01 0.01 0.01 0.01 0.01 0.01 0.01 0.01 0.01 0.01 0.01 0.01 0.02 0.04 0.09 0.17 0.22 0.22 0.17 0.13 0.07 0.03 0.01 0.00 0.01 0.02 0.02 0.02 0.03 0.05 0.07 0.08 0.09 0.10 0.07 0.06 0.06 0.05
0.02 0.02 0.02 0.02 0.02 0.01 0.01 0.01 0.01 0.01 0.01 0.01 0.01 0.01 0.02 0.01 0.01 0.01 0.04 0.10 0.22 0.31 0.34 0.28 0.20 0.11 0.04 0.01 0.01 0.01 0.02 0.02 0.02 0.02 0.03 0.04 0.05 0.07 0.06 0.05 0.04 0.03 0.03
0.02 0.02 0.02 0.02 0.02 0.01 0.02 0.02 0.02 0.02 0.01 0.01 0.01 0.01 0.01 0.01 0.01 0.01 0.03 0.11 0.26 0.38 0.44 0.40 0.28 0.16 0.07 0.02 0.01 0.02 0.02 0.02 0.02 0.02 0.03 0.03 0.03 0.04 0.04 0.03 0.02 0.01 0.01
0.03 0.02 0.02 0.02 0.02 0.02 0.03 0.02 0.02 0.02 0.01 0.01 0.01 0.02 0.02 0.02 0.02 0.02 0.04 0.13 0.29 0.43 0.55 0.54 0.37 0.22 0.11 0.03 0.02 0.03 0.02 0.01 0.01 0.02 0.02 0.02 0.02 0.01 0.01 0.01 0.01 0.00 0.00
0.04 0.03 0.02 0.03 0.03 0.03 0.03 0.04 0.03 0.02 0.02 0.02 0.02 0.03 0.03 0.02 0.03 0.03 0.04 0.15 0.34 0.48 0.60 0.61 0.44 0.25 0.12 0.04 0.02 0.02 0.01 0.01 0.01 0.01 0.01 0.01 0.01 0.00 0.00 0.00 0.00 0.00 0.00
0.05 0.04 0.04 0.04 0.04 0.04 0.04 0.04 0.04 0.03 0.03 0.02 0.02 0.03 0.03 0.02 0.03 0.03 0.06 0.17 0.39 0.57 0.60 0.57 0.47 0.25 0.11 0.04 0.02 0.02 0.01 0.01 0.01 0.01 0.00 0.01 0.00 0.00 0.00 0.00 0.00 0.00 0.00
0.06 0.05 0.05 0.05 0.05 0.05 0.05 0.04 0.03 0.02 0.01 0.01 0.01 0.02 0.03 0.01 0.01 0.03 0.09 0.21 0.40 0.60 0.62 0.50 0.37 0.20 0.08 0.03 0.01 0.01 0.01 0.01 0.00 0.00 0.00 0.00 0.00 0.00 0.00 0.00 0.00 0.00 0.00
0.06 0.05 0.04 0.04 0.04 0.05 0.06 0.05 0.04 0.02 0.01 0.01 0.01 0.01 0.01 0.00 0.00 0.03 0.13 0.25 0.41 0.55 0.53 0.38 0.23 0.13 0.05 0.01 0.01 0.00 0.00 0.00 0.00 0.00 0.00 0.00 0.00 0.00 0.00 0.00 0.00 0.00 0.00
0.06 0.06 0.04 0.03 0.03 0.04 0.05 0.06 0.05 0.04 0.02 0.01 0.01 0.01 0.00 0.00 0.01 0.06 0.15 0.25 0.38 0.46 0.39 0.25 0.13 0.07 0.02 0.01 0.01 0.00 0.00 0.00 0.00 0.00 0.00 0.00 0.00 0.00 0.00 0.00 0.00 0.00 0.00
0.06 0.05 0.04 0.04 0.04 0.05 0.05 0.05 0.05 0.04 0.04 0.02 0.00 0.00 0.00 0.01 0.03 0.09 0.14 0.22 0.31 0.33 0.26 0.15 0.07 0.03 0.01 0.00 0.00 0.00 0.00 0.00 0.00 0.00 0.00 0.00 0.00 0.00 0.00 0.00 0.00 0.00 0.00
0.06 0.07 0.05 0.04 0.05 0.05 0.05 0.04 0.04 0.04 0.04 0.02 0.01 0.00 0.00 0.01 0.04 0.08 0.14 0.20 0.24 0.21 0.15 0.09 0.04 0.02 0.00 0.00 0.00 0.00 0.00 0.00 0.00 0.00 0.00 0.00 0.00 0.00 0.00 0.00 0.00 0.00 0.00
0.07 0.07 0.06 0.04 0.04 0.04 0.04 0.04 0.04 0.04 0.04 0.03 0.01 0.01 0.01 0.02 0.04 0.07 0.13 0.17 0.15 0.10 0.07 0.04 0.02 0.01 0.00 0.00 0.00 0.00 0.00 0.00 0.00 0.00 0.00 0.00 0.00 0.00 0.00 0.00 0.00 0.00 0.00
0.07 0.09 0.09 0.06 0.03 0.03 0.03 0.03 0.03 0.03 0.03 0.02 0.01 0.01 0.01 0.02 0.04 0.07 0.12 0.11 0.07 0.04 0.02 0.02 0.01 0.01 0.00 0.00 0.00 0.00 0.00 0.00 0.00 0.00 0.00 0.00 0.00 0.00 0.00 0.00 0.00 0.00 0.00
0.08 0.10 0.10 0.07 0.06 0.04 0.03 0.02 0.02 0.03 0.02 0.01 0.01 0.01 0.01 0.02 0.04 0.06 0.07 0.05 0.03 0.02 0.01 0.01 0.01 0.00 0.00 0.00 0.00 0.00 0.00 0.00 0.00 0.00 0.00 0.00 0.00 0.00 0.00 0.00 0.00 0.00 0.00
0.07 0.07 0.06 0.06 0.05 0.04 0.03 0.02 0.02 0.02 0.01 0.01 0.01 0.01 0.01 0.01 0.02 0.02 0.02 0.02 0.02 0.01 0.01 0.00 0.00 0.00 0.00 0.00 0.00 0.00 0.00 0.00 0.00 0.00 0.00 0.00 0.00 0.00 0.00 0.00 0.00 0.00 0.00
0.06 0.04 0.03 0.03 0.03 0.02 0.02 0.01 0.01 0.01 0.01 0.01 0.01 0.00 0.01 0.01 0.01 0.01 0.01 0.01 0.01 0.00 0.00 0.00 0.00 0.00 0.00 0.00 0.00 0.00 0.00 0.00 0.00 0.00 0.00 0.00 0.00 0.00 0.00 0.00 0.00 0.00 0.00
0.04 0.03 0.02 0.02 0.02 0.02 0.02 0.01 0.01 0.01 0.00 0.00 0.00 0.00 0.00 0.00 0.00 0.00 0.00 0.00 0.00 0.00 0.00 0.00 0.00 0.00 0.00 0.00 0.00 0.00 0.00 0.00 0.00 0.00 0.00 0.00 0.00 0.00 0.00 0.00 0.00 0.00 0.00
MSLP
1011.35 1011.22 1011.11 1011.01 1010.92 1010.83 1010.74 1010.64 1010.55 1010.46 1010.36 1010.26 1010.15 1010.01 1009.86 1009.68 1009.48 1009.27 1009.07 1008.87 1008.70 1008.55 1008.42 1008.29 1008.17 1008.04 1007.89 1007.73 1007.56 1007.40 1007.25 1007.14 1007.07 1007.05 1007.08 1007.16 1007.29 1007.44 1007.62 1007.82 1008.04 1008.27 1008.52
1010.74 1010.60 1010.50 1010.43 1010.38 1010.35 1010.32 1010.29 1010.27 1010.23 1010.18 1010.11 1010.01 1009.87 1009.70 1009.49 1009.26 1009.02 1008.79 1008.56 1008.36 1008.18 1008.01 1007.84 1007.67 1007.49 1007.29 1007.09 1006.89 1006.72 1006.59 1006.52 1006.52 1006.60 1006.76 1006.98 1007.26 1007.56 1007.88 1008.21 1008.53 1008.85 1009.16
1010.01 1009.88 1009.78 1009.72 1009.68 1009.67 1009.68 1009.70 1009.72 1009.74 1009.73 1009.70 1009.62 1009.51 1009.35 1009.15 1008.92 1008.68 1008.45 1008.22 1008.01 1007.81 1007.62 1007.42 1007.21 1006.98 1006.74 1006.50 1006.26 1006.07 1005.94 1005.90 1005.95 1006.11 1006.37 1006.71 1007.12 1007.56 1008.01 1008.46 1008.90 1009.31 1009.69
1009.21 1009.07 1008.96 1008.89 1008.85 1008.84 1008.85 1008.89 1008.94 1008.98 1009.02 1009.03 1009.00 1008.92 1008.80 1008.63 1008.44 1008.23 1008.02 1007.81 1007.61 1007.42 1007.22 1007.01 1006.77 1006.52 1006.24 1005.96 1005.70 1005.49 1005.35 1005.31 1005.39 1005.59 1005.91 1006.34 1006.84 1007.39 1007.97 1008.53 1009.08 1009.59 1010.05
1008.38 1008.22 1008.09 1008.00 1007.93 1007.89 1007.89 1007.92 1007.97 1008.04 1008.11 1008.16 1008.18 1008.15 1008.08 1007.97 1007.83 1007.66 1007.49 1007.31 1007.14 1006.96 1006.78 1006.57 1006.34 1006.08 1005.79 1005.49 1005.21 1004.98 1004.82 1004.78 1004.85 1005.07 1005.42 1005.89 1006.46 1007.08 1007.74 1008.40 1009.05 1009.65 1010.20
1007.55 1007.38 1007.22 1007.08 1006.97 1006.89 1006.86 1006.87 1006.92 1007.00 1007.09 1007.18 1007.25 1007.28 1007.26 1007.20 1007.10 1006.98 1006.84 1006.70 1006.56 1006.42 1006.26 1006.09 1005.88 1005.64 1005.37 1005.08 1004.81 1004.57 1004.40 1004.34 1004.41 1004.61 1004.96 1005.44 1006.02 1006.69 1007.40 1008.13 1008.85 1009.53 1010.17
1006.78 1006.58 1006.39 1006.20 1006.04 1005.91 1005.84 1005.82 1005.86 1005.94 1006.06 1006.18 1006.28 1006.36 1006.38 1006.36 1006.30 1006.21 1006.10 1005.99 1005.88 1005.77 1005.66 1005.53 1005.37 1005.19 1004.97 1004.73 1004.49 1004.27 1004.11 1004.05 1004.10 1004.28 1004.60 1005.06 1005.64 1006.30 1007.04 1007.80 1008.57 1009.32 1010.03
1006.08 1005.86 1005.62 1005.39 1005.17 1005.00 1004.88 1004.84 1004.86 1004.95 1005.07 1005.22 1005.35 1005.45 1005.50 1005.50 1005.45 1005.37 1005.27 1005.18 1005.09 1005.02 1004.95 1004.89 1004.81 1004.71 1004.58 1004.42 1004.25 1004.10 1003.98 1003.93 1003.97 1004.14 1004.43 1004.86 1005.40 1006.05 1006.77 1007.54 1008.33 1009.11 1009.87
1005.46 1005.20 1004.92 1004.63 1004.37 1004.15 1004.00 1003.93 1003.95 1004.03 1004.17 1004.32 1004.46 1004.57 1004.62 1004.61 1004.56 1004.47 1004.37 1004.28 1004.21 1004.17 1004.16 1004.18 1004.20 1004.21 1004.20 1004.16 1004.10 1004.04 1004.00 1004.00 1004.07 1004.23 1004.50 1004.89 1005.40 1006.00 1006.69 1007.43 1008.21 1009.01 1009.78
1004.88 1004.57 1004.24 1003.91 1003.61 1003.36 1003.18 1003.10 1003.10 1003.18 1003.32 1003.47 1003.61 1003.71 1003.75 1003.72 1003.65 1003.54 1003.42 1003.33 1003.27 1003.27 1003.32 1003.42 1003.55 1003.69 1003.82 1003.93 1004.02 1004.09 1004.15 1004.24 1004.36 1004.54 1004.81 1005.18 1005.64 1006.20 1006.84 1007.54 1008.28 1009.04 1009.80
1004.31 1003.94 1003.56 1003.19 1002.84 1002.57 1002.37 1002.28 1002.28 1002.35 1002.49 1002.63 1002.76 1002.84 1002.86 1002.82 1002.72 1002.58 1002.45 1002.35 1002.31 1002.35 1002.46 1002.65 1002.89 1003.17 1003.46 1003.73 1003.98 1004.20 1004.40 1004.60 1004.80 1005.03 1005.32 1005.68 1006.11 1006.62 1007.20 1007.83 1008.51 1009.21 1009.92
1003.69 1003.27 1002.83 1002.41 1002.04 1001.74 1001.53 1001.43 1001.43 1001.51 1001.63 1001.78 1001.89 1001.96 1001.97 1001.90 1001.78 1001.64 1001.50 1001.40 1001.38 1001.46 1001.64 1001.91 1002.27 1002.68 1003.11 1003.55 1003.96 1004.35 1004.69 1005.01 1005.31 1005.62 1005.94 1006.31 1006.72 1007.18 1007.70 1008.26 1008.86 1009.48 1010.12
1003.02 1002.53 1002.04 1001.58 1001.18 1000.86 1000.65 1000.55 1000.54 1000.62 1000.75 1000.89 1001.01 1001.07 1001.07 1001.00 1000.89 1000.75 1000.62 1000.54 1000.55 1000.67 1000.91 1001.26 1001.71 1002.23 1002.80 1003.38 1003.94 1004.47 1004.95 1005.40 1005.80 1006.19 1006.57 1006.95 1007.36 1007.79 1008.25 1008.74 1009.25 1009.79 1010.34
1002.30 1001.75 1001.21 1000.71 1000.29 999.97 999.75 999.65 999.65 999.73 999.86 1000.01 1000.13 1000.21 1000.22 1000.17 1000.08 999.97 999.87 999.83 999.87 1000.04 1000.32 1000.74 1001.26 1001.87 1002.53 1003.22 1003.89 1004.54 1005.14 1005.70 1006.20 1006.66 1007.09 1007.51 1007.92 1008.33 1008.74 1009.17 1009.62 1010.07 1010.54
1001.58 1000.97 1000.40 999.88 999.44 999.11 998.90 998.80 998.81 998.90 999.04 999.20 999.35 999.45 999.50 999.49 999.43 999.37 999.32 999.32 999.41 999.61 999.94 1000.39 1000.95 1001.61 1002.32 1003.07 1003.82 1004.55 1005.24 1005.87 1006.45 1006.98 1007.46 1007.91 1008.33 1008.73 1009.13 1009.51 1009.90 1010.30 1010.70
1000.92 1000.28 999.68 999.16 998.72 998.40 998.20 998.11 998.13 998.23 998.39 998.57 998.74 998.88 998.97 999.01 999.02 999.01 999.01 999.07 999.20 999.43 999.77 1000.24 1000.81 1001.47 1002.20 1002.96 1003.74 1004.50 1005.24 1005.92 1006.55 1007.13 1007.65 1008.13 1008.57 1008.98 1009.37 1009.74 1010.10 1010.46 1010.83
1000.39 999.74 999.15 998.63 998.21 997.91 997.72 997.64 997.68 997.80 997.97 998.17 998.38 998.56 998.70 998.80 998.86 998.91 998.97 999.07 999.23 999.48 999.82 1000.27 1000.82 1001.45 1002.16 1002.90 1003.67 1004.43 1005.17 1005.87 1006.53 1007.13 1007.69 1008.20 1008.66 1009.09 1009.49 1009.86 1010.22 1010.58 1010.94
1000.03 999.39 998.82 998.34 997.95 997.67 997.50 997.45 997.51 997.64 997.83 998.06 998.29 998.51 998.69 998.84 998.96 999.07 999.17 999.30 999.47 999.72 1000.04 1000.46 1000.96 1001.54 1002.19 1002.89 1003.61 1004.34 1005.06 1005.76 1006.42 1007.04 1007.62 1008.15 1008.64 1009.10 1009.52 1009.92 1010.30 1010.68 1011.05
999.83 999.23 998.70 998.26 997.91 997.67 997.54 997.52 997.60 997.75 997.96 998.21 998.47 998.71 998.93 999.12 999.28 999.41 999.54 999.68 999.86 1000.08 1000.38 1000.74 1001.19 1001.70 1002.28 1002.91 1003.58 1004.26 1004.95 1005.62 1006.28 1006.90 1007.49 1008.05 1008.56 1009.04 1009.50 1009.93 1010.35 1010.75 1011.16
999.75 999.20 998.72 998.33 998.04 997.85 997.76 997.77 997.88 998.06 998.29 998.55 998.83 999.09 999.33 999.54 999.72 999.87 1000.00 1000.14 1000.30 1000.50 1000.74 1001.05 1001.43 1001.88 1002.39 1002.95 1003.56 1004.19 1004.84 1005.49 1006.13 1006.75 1007.35 1007.91 1008.45 1008.96 1009.44 1009.91 1010.36 1010.80 1011.23
999.72 999.22 998.80 998.46 998.22 998.09 998.05 998.10 998.24 998.45 998.70 998.98 999.27 999.54 999.79 1000.01 1000.19 1000.33 1000.46 1000.58 1000.71 1000.87 1001.07 1001.33 1001.65 1002.03 1002.48 1002.98 1003.54 1004.13 1004.74 1005.37 1005.99 1006.60 1007.20 1007.77 1008.32 1008.85 1009.35 1009.84 1010.31 1010.78 1011.23
999.66 999.20 998.83 998.55 998.37 998.29 998.30 998.40 998.58 998.82 999.09 999.39 999.69 999.96 1000.21 1000.42 1000.60 1000.73 1000.84 1000.93 1001.03 1001.15 1001.31 1001.52 1001.79 1002.12 1002.52 1002.98 1003.50 1004.06 1004.64 1005.25 1005.86 1006.46 1007.04 1007.61 1008.16 1008.69 1009.20 1009.69 1010.17 1010.64 1011.09
999.52 999.09 998.76 998.53 998.40 998.37 998.44 998.59 998.80 999.07 999.37 999.69 999.99 1000.28 1000.52 1000.72 1000.88 1001.00 1001.08 1001.15 1001.22 1001.31 1001.43 1001.60 1001.84 1002.14 1002.51 1002.94 1003.44 1003.97 1004.54 1005.12 1005.72 1006.30 1006.88 1007.43 1007.96 1008.47 1008.97 1009.44 1009.90 1010.35 1010.79
999.30 998.89 998.59 998.40 998.31 998.33 998.44 998.64 998.89 999.19 999.52 999.85 1000.16 1000.45 1000.69 1000.88 1001.03 1001.13 1001.19 1001.24 1001.29 1001.36 1001.46 1001.61 1001.83 1002.11 1002.46 1002.88 1003.36 1003.88 1004.43 1005.00 1005.57 1006.14 1006.69 1007.21 1007.71 1008.19 1008.65 1009.09 1009.52 1009.93 1010.33
999.06 998.67 998.38 998.22 998.17 998.22 998.36 998.59 998.87 999.20 999.54 999.88 1000.20 1000.49 1000.73 1000.92 1001.05 1001.14 1001.20 1001.24 1001.28 1001.34 1001.43 1001.58 1001.79 1002.07 1002.42 1002.83 1003.30 1003.81 1004.34 1004.89 1005.44 1005.98 1006.49 1006.98 1007.44 1007.87 1008.28 1008.67 1009.04 1009.40 1009.76
998.91 998.52 998.24 998.09 998.06 998.13 998.29 998.53 998.83 999.16 999.51 999.85 1000.17 1000.45 1000.69 1000.88 1001.01 1001.10 1001.16 1001.20 1001.25 1001.31 1001.41 1001.57 1001.79 1002.07 1002.42 1002.83 1003.29 1003.79 1004.31 1004.83 1005.35 1005.85 1006.32 1006.75 1007.16 1007.54 1007.89 1008.22 1008.54 1008.85 1009.16
Thickness
5617 5615 5614 5613 5612 5612 5613 5615 5617 5620 5623 5626 5629 5633 5637 5643 5648 5653 5658 5663 5667 5671 5674 5677 5680 5682 5685 5687 5687 5688 5687 5686 5685 5684 5682 5681 5679 5677 5675 5675 5676 5678 5679
5601 5597 5594 5592 5590 5589 5591 5594 5597 5600 5604 5607 5611 5615 5620 5626 5631 5637 5643 5649 5654 5659 5664 5668 5672 5676 5678 5681 5682 5684 5684 5683 5682 5680 5678 5675 5673 5670 5667 5666 5666 5666 5668
5585 5580 5577 5574 5571 5571 5571 5574 5576 5579 5583 5588 5592 5597 5602 5608 5614 5621 5628 5635 5642 5648 5654 5659 5664 5668 5671 5674 5677 5679 5679 5680 5680 5678 5674 5671 5667 5663 5660 5657 5656 5656 5657
5572 5567 5564 5561 5559 5559 5558 5558 5559 5561 5564 5568 5573 5578 5584 5590 5598 5605 5613 5621 5629 5637 5644 5651 5657 5661 5665 5668 5671 5673 5674 5675 5675 5674 5671 5667 5662 5657 5653 5650 5646 5646 5646
5565 5560 5558 5556 5553 5551 5549 5549 5549 5549 5552 5554 5557 5561 5566 5573 5581 5588 5596 5606 5615 5624 5633 5641 5648 5654 5659 5662 5665 5667 5668 5670 5670 5670 5667 5663 5657 5652 5647 5644 5641 5637 5635
5560 5558 5556 5553 5550 5547 5546 5544 5543 5542 5543 5544 5546 5549 5553 5560 5567 5573 5580 5589 5599 5610 5620 5629 5637 5645 5651 5655 5659 5662 5664 5665 5666 5665 5663 5660 5653 5648 5643 5639 5636 5633 5628
5556 5554 5551 5549 5546 5544 5543 5541 5539 5538 5538 5538 5539 5541 5544 5548 5553 5559 5566 5574 5583 5595 5606 5617 5627 5635 5641 5645 5650 5654 5657 5660 5663 5662 5659 5656 5650 5645 5640 5634 5631 5629 5626
5548 5546 5544 5541 5539 5538 5536 5535 5534 5533 5533 5534 5535 5536 5537 5541 5545 5549 5555 5561 5569 5580 5593 5606 5616 5624 5631 5636 5640 5644 5648 5652 5655 5656 5655 5652 5648 5641 5637 5633 5627 5621 5616
5534 5532 5531 5530 5529 5528 5527 5527 5527 5527 5527 5529 5531 5532 5533 5535 5539 5542 5546 5550 5557 5567 5580 5594 5606 5615 5623 5628 5631 5635 5639 5642 5646 5647 5646 5644 5640 5635 5631 5626 5620 5615 5608
5520 5518 5517 5516 5516 5517 5518 5519 5520 5520 5522 5524 5526 5528 5530 5532 5535 5537 5540 5542 5547 5557 5569 5583 5595 5605 5612 5618 5624 5628 5631 5633 5636 5636 5634 5632 5630 5627 5624 5621 5618 5613 5606
5506 5504 5503 5502 5502 5504 5506 5509 5511 5513 5515 5518 5521 5524 5526 5529 5532 5534 5536 5536 5540 5548 5559 5572 5584 5593 5601 5608 5616 5621 5625 5626 5627 5627 5625 5623 5621 5618 5616 5614 5613 5611 5606
5492 5490 5489 5489 5490 5494 5495 5498 5501 5504 5507 5511 5514 5518 5522 5525 5529 5531 5533 5533 5536 5542 5552 5564 5574 5581 5590 5598 5606 5611 5614 5617 5618 5618 5616 5614 5612 5610 5609 5608 5606 5605 5606
5483 5480 5479 5479 5480 5481 5484 5488 5492 5496 5500 5505 5508 5512 5517 5521 5524 5528 5529 5530 5532 5537 5545 5556 5565 5572 5580 5589 5597 5601 5605 5608 5609 5609 5607 5605 5604 5604 5603 5601 5599 5598 5599
5476 5474 5473 5472 5473 5474 5476 5480 5484 5490 5494 5499 5504 5508 5513 5517 5520 5522 5524 5525 5527 5531 5538 5547 5555 5564 5574 5582 5587 5593 5597 5600 5602 5601 5599 5597 5597 5596 5596 5596 5594 5593 5592
5474 5472 5471 5469 5469 5470 5472 5476 5481 5486 5491 5496 5501 5506 5510 5514 5518 5520 5521 5522 5523 5527 5532 5540 5549 5558 5567 5574 5579 5584 5588 5591 5592 5592 5592 5590 5589 5588 5588 5588 5589 5590 5588
5474 5472 5471 5469 5469 5469 5471 5475 5480 5485 5491 5495 5501 5505 5510 5514 5516 5516 5516 5517 5518 5521 5529 5538 5548 5557 5565 5571 5576 5578 5582 5585 5586 5587 5587 5586 5584 5583 5582 5582 5584 5584 5582
5475 5474 5472 5471 5471 5472 5473 5476 5479 5484 5489 5493 5498 5502 5507 5509 5511 5511 5511 5512 5514 5519 5528 5538 5547 5555 5563 5568 5572 5575 5577 5579 5582 5582 5582 5581 5581 5580 5579 5579 5578 5578 5578
5479 5478 5476 5475 5475 5476 5478 5480 5482 5485 5487 5489 5493 5498 5502 5504 5506 5507 5507 5510 5514 5521 5531 5540 5547 5554 5561 5566 5569 5572 5574 5576 5577 5578 5578 5578 5578 5578 5577 5577 5576 5577 5576
5484 5482 5481 5480 5481 5482 5483 5485 5486 5488 5490 5490 5491 5493 5497 5499 5501 5503 5506 5513 5519 5525 5533 5541 5548 5555 5560 5565 5568 5570 5573 5574 5575 5575 5576 5577 5577 5577 5576 5576 5576 5576 5575
5491 5493 5492 5488 5487 5488 5490 5491 5492 5493 5494 5494 5494 5495 5496 5499 5502 5505 5510 5516 5523 5530 5537 5544 5550 5556 5561 5565 5568 5570 5571 5572 5573 5574 5575 5576 5577 5578 5577 5576 5576 5575 5575
5499 5498 5499 5495 5494 5495 5496 5497 5498 5499 5499 5499 5499 5500 5501 5505 5507 5511 5515 5522 5529 5536 5542 5548 5553 5558 5562 5566 5569 5571 5572 5573 5574 5576 5577 5577 5578 5577 5577 5577 5576 5576 5574
5508 5506 5504 5503 5502 5501 5503 5504 5505 5505 5505 5505 5503 5503 5504 5509 5512 5517 5523 5528 5535 5541 5547 5552 5557 5562 5566 5569 5572 5573 5574 5575 5577 5578 5578 5578 5578 5578 5577 5576 5574 5574 5573
5518 5516 5513 5511 5510 5510 5509 5510 5511 5511 5511 5510 5509 5509 5510 5515 5520 5525 5530 5536 5542 5548 5554 5559 5563 5567 5570 5573 5576 5578 5578 5579 5580 5581 5580 5578 5578 5577 5576 5575 5574 5572 5571
5529 5527 5525 5522 5520 5518 5517 5517 5518 5518 5518 5517 5516 5517 5519 5523 5528 5533 5538 5544 5550 5556 5562 5566 5570 5573 5575 5577 5579 5581 5583 5584 5584 5583 5582 5580 5578 5577 5576 5574 5573 5572 5570
5543 5539 5536 5534 5532 5529 5528 5527 5526 5525 5525 5525 5525 5526 5528 5532 5536 5541 5546 5551 5558 5563 5568 5573 5576 5578 5580 5582 5583 5584 5585 5585 5585 5585 5583 5581 5579 5577 5575 5574 5572 5570 5567
5554 5551 5548 5545 5543 5541 5539 5538 5536 5535 5535 5536 5536 5537 5540 5543 5546 5551 5555 5560 5565 5570 5574 5578 5581 5583 5584 5585 5586 5586 5585 5585 5585 5585 5583 5581 5578 5576 5574 5572 5571 5569 5567